Wind_Speed
12 13 13 13 12 12 12 13 12 12 12 12 11 10 10 11 11 11 10 9 9 9 10 11 11 11 11 11 11 12 12 13 13 12 11 10 9 9 9 8 7 7 8 11 12 11 10 9 9 9 10 10 6 3 3 7 8 9 11 11 9 6 8 7 7 5 5 5 2 4 5 7 7 9 10 11 10 10 13 11 9 10 12 15 18 26 29 30
12 12 13 13 13 12 13 13 13 12 12 12 11 11 10 11 11 11 11 10 10 10 9 10 11 11 11 11 11 11 12 13 13 13 11 9 10 10 10 9 7 6 6 8 10 9 9 8 8 9 9 8 5 5 6 7 9 11 13 12 7 4 10 9 7 4 5 5 2 5 6 7 6 10 12 13 12 11 12 12 15 15 14 16 21 27 29 30
12 13 13 13 13 13 13 13 13 13 13 12 12 11 11 11 11 11 12 11 11 11 11 10 11 11 12 12 11 11 11 13 13 11 11 11 11 11 10 10 8 6 6 7 10 10 10 10 9 10 9 8 7 4 5 5 6 10 15 13 6 6 10 11 8 5 4 5 2 5 7 7 7 10 11 11 12 12 11 14 18 20 18 18 23 29 30 30
14 14 14 14 13 13 13 14 14 14 13 13 12 12 11 11 11 11 11 12 12 12 12 12 11 11 11 12 11 10 11 13 11 8 10 12 11 11 11 10 8 7 7 8 12 13 14 14 10 9 9 8 7 5 6 7 7 8 14 12 8 9 11 11 8 7 4 4 3 5 6 7 9 9 8 10 11 11 11 12 11 12 16 20 25 29 30 30
15 15 14 13 13 13 13 13 14 14 14 13 13 12 12 11 11 11 11 12 11 12 12 12 12 12 11 11 11 10 10 11 9 7 10 12 12 12 11 11 9 8 8 9 11 14 16 15 11 6 8 8 9 9 9 8 9 9 12 11 9 12 13 11 8 8 6 2 3 4 4 5 10 8 9 10 7 7 11 11 7 5 10 16 23 28 31 31
14 13 13 12 12 12 12 12 12 13 13 13 13 12 12 11 11 11 11 11 11 12 12 12 12 12 12 11 10 10 9 10 9 6 6 10 13 13 11 11 10 9 10 9 10 14 16 15 15 10 10 10 12 12 8 6 9 12 13 10 9 14 14 11 7 6 6 2 1 2 4 6 9 7 9 9 6 6 8 10 7 6 7 10 22 28 29 31
12 12 11 11 11 11 11 11 11 11 11 12 12 12 11 10 10 10 10 11 11 11 12 12 12 11 11 11 10 9 10 13 15 8 4 7 10 12 12 11 10 11 10 7 10 12 15 15 17 15 13 11 12 12 10 9 12 15 16 11 10 15 12 10 6 3 6 5 1 1 4 7 6 6 8 6 7 10 9 11 9 9 8 8 21 30 28 28
12 11 11 11 10 10 11 11 11 11 11 10 10 10 10 10 10 10 10 10 10 11 11 11 11 11 11 11 10 10 13 16 17 10 8 9 8 9 11 12 12 11 10 8 9 10 14 16 16 16 14 11 9 8 9 11 13 17 19 15 13 16 11 11 7 2 6 6 4 2 2 5 4 6 7 5 9 13 11 16 16 11 8 10 21 31 29 28
12 11 11 11 11 11 11 11 11 11 11 10 9 9 9 9 9 9 10 10 10 10 11 11 11 11 10 10 9 11 14 15 16 11 10 11 10 10 9 11 12 11 11 10 10 10 15 16 15 14 13 10 7 7 7 9 12 14 15 14 14 16 13 12 9 4 5 6 9 5 1 2 6 10 9 6 8 13 12 18 21 14 9 11 20 29 29 28
12 12 11 11 11 11 11 11 11 11 11 10 10 9 9 9 9 9 9 9 10 10 11 11 11 11 10 10 9 12 14 13 15 12 10 10 12 13 10 10 10 11 12 11 11 11 13 15 14 12 12 11 11 11 11 13 15 13 14 14 15 16 14 12 11 8 6 7 9 5 2 1 5 10 9 8 9 12 14 19 21 15 12 13 16 23 26 27
13 12 12 12 12 12 12 12 12 12 12 11 10 10 9 9 9 9 9 9 9 10 10 11 10 10 10 10 11 14 15 14 13 12 11 11 12 14 13 12 10 10 12 13 12 10 12 14 13 10 11 11 12 12 13 14 15 16 17 18 16 16 14 12 13 12 10 9 12 8 4 4 4 8 7 9 11 13 16 20 18 16 17 17 18 19 20 25
13 12 12 12 12 12 13 13 14 13 13 12 12 11 10 10 9 9 10 10 9 9 9 10 9 9 9 10 10 13 16 15 13 11 11 10 11 12 13 14 12 11 12 13 12 11 14 16 15 12 12 9 9 10 9 9 13 16 17 20 17 14 12 12 13 15 13 11 12 10 7 7 6 9 10 10 13 13 16 18 18 21 21 18 22 22 18 22
14 13 12 12 13 13 14 14 15 15 14 14 13 12 12 11 10 10 10 9 9 9 8 9 9 9 9 9 8 11 14 14 14 13 12 10 10 10 11 14 14 12 12 14 15 11 12 16 16 14 14 12 13 13 9 4 9 13 13 17 16 15 16 16 14 15 16 14 12 12 12 11 10 12 13 13 14 16 18 15 17 26 26 17 23 26 23 27
15 14 13 13 14 14 15 15 16 16 16 16 15 14 14 12 12 11 10 10 9 8 8 8 8 9 8 8 8 7 8 11 13 12 11 11 10 9 10 11 13 13 13 16 18 14 9 11 14 15 16 17 16 16 14 10 10 11 12 15 16 19 20 17 15 15 18 17 15 16 14 11 12 16 15 13 15 17 20 17 16 25 27 19 22 27 27 30
15 15 14 14 15 15 16 16 16 17 17 16 16 15 15 14 13 11 10 9 8 8 9 8 7 8 8 7 5 3 6 8 9 6 5 7 8 9 9 9 12 14 14 16 18 17 12 10 15 17 18 18 17 16 17 16 13 11 13 17 17 19 19 16 16 17 19 19 19 19 14 10 13 17 16 13 14 17 20 19 16 19 22 22 22 24 25 29
16 16 16 16 16 16 16 16 16 17 17 17 17 16 15 14 13 11 9 8 8 8 8 7 6 6 7 7 4 5 8 6 7 8 5 3 5 8 7 7 11 15 16 17 18 18 16 13 16 18 17 16 15 15 14 15 15 13 14 17 16 17 18 16 15 17 20 20 22 22 15 12 15 18 18 14 14 17 20 20 19 18 21 25 24 22 24 28
17 17 17 17 17 17 17 16 16 16 16 16 17 16 15 14 13 11 9 7 7 8 7 6 4 3 4 5 3 5 6 7 9 11 8 5 5 7 7 7 9 13 16 17 20 19 17 17 16 17 18 17 15 13 13 16 19 16 14 16 15 16 18 18 13 13 19 21 23 25 20 14 15 19 21 17 15 17 20 21 20 20 20 24 25 23 24 27
18 18 18 18 17 17 16 16 16 16 16 16 16 16 15 14 13 11 8 6 5 6 4 3 2 1 2 4 3 1 7 11 12 11 9 5 5 6 7 8 9 11 14 16 19 19 17 18 16 15 16 19 19 17 20 23 19 15 15 17 17 16 17 20 18 13 18 23 24 25 24 16 14 19 21 18 16 16 20 21 20 20 19 20 22 21 22 25
18 19 19 18 18 17 17 17 17 17 17 16 16 16 15 13 13 11 9 6 4 6 4 3 5 3 1 5 6 5 8 10 10 9 7 4 3 4 6 9 8 9 11 14 16 18 18 17 16 16 18 21 23 24 26 23 15 13 16 19 18 17 16 17 20 17 18 25 26 25 26 19 14 18 20 20 19 18 20 22 21 20 19 20 20 17 20 23
19 19 19 19 18 18 18 18 18 18 17 16 16 15 13 10 10 11 9 6 6 7 8 8 7 7 4 5 8 9 9 7 5 6 7 8 3 3 5 8 9 8 11 13 13 13 16 18 18 20 21 21 21 22 24 20 15 16 19 21 20 20 19 16 17 17 17 24 29 26 24 22 19 19 20 22 24 23 22 23 23 22 21 20 18 16 19 22
19 19 19 19 19 18 18 18 18 17 17 16 16 14 12 9 8 10 10 9 9 9 10 10 8 11 11 10 13 12 9 3 3 4 9 9 6 1 3 7 10 10 13 13 11 10 14 20 21 20 20 19 18 17 19 18 17 19 21 23 22 23 21 17 18 19 18 20 29 28 22 24 25 22 21 23 26 26 24 23 22 22 21 20 19 17 17 20
19 19 19 18 18 18 17 17 16 16 16 16 15 15 12 9 8 9 11 10 9 10 9 8 8 8 7 7 9 7 5 2 2 7 12 11 7 1 2 4 8 10 11 11 13 13 17 21 21 19 18 17 17 17 18 19 18 20 21 23 23 21 20 16 14 19 18 16 24 28 25 27 26 25 26 25 24 25 25 24 22 22 24 22 20 20 18 19
20 20 19 18 17 17 17 16 15 14 14 13 14 14 11 8 8 9 10 9 8 9 6 4 3 3 1 6 5 2 6 4 4 7 14 11 5 2 3 3 5 8 10 11 14 17 19 19 16 16 17 17 17 17 18 20 20 21 21 23 23 20 20 18 11 13 16 16 20 24 27 28 27 28 30 27 23 24 25 24 22 22 23 21 20 22 22 20
21 20 20 18 17 17 18 16 14 13 11 11 11 11 9 7 7 8 9 8 6 6 3 1 2 4 3 6 2 5 6 8 8 6 10 5 1 3 3 5 6 8 11 12 15 18 20 16 12 12 13 17 20 19 19 20 22 22 22 23 23 21 21 21 17 15 15 17 20 22 25 28 32 33 29 26 24 24 26 25 24 23 21 21 22 23 23 22
21 20 20 19 17 17 18 15 12 12 10 6 5 9 9 6 7 7 7 7 5 3 2 5 4 6 5 4 5 6 5 4 3 4 8 3 4 6 6 7 9 10 11 11 14 19 20 17 16 16 14 15 19 21 22 20 21 23 22 21 21 22 23 22 19 18 19 17 17 19 18 19 32 37 33 31 29 27 27 27 27 26 23 25 26 25 24 24
21 19 19 20 17 15 16 14 10 10 9 5 6 9 9 6 6 5 6 7 3 0 3 5 4 4 4 3 6 8 5 1 3 5 6 6 5 9 11 10 9 10 10 10 13 18 19 17 17 20 18 17 19 22 22 21 22 24 22 19 17 20 24 26 23 20 19 17 17 19 15 13 28 39 36 32 31 32 30 28 30 29 27 29 29 27 26 26
20 19 18 19 18 14 13 12 10 9 11 10 7 7 6 5 4 2 3 4 2 4 5 7 7 8 4 2 6 7 4 3 8 8 5 4 1 8 12 11 9 10 10 11 14 13 13 14 16 18 20 21 21 22 21 20 24 24 21 19 17 15 18 24 25 22 20 21 24 22 17 14 23 35 37 33 33 36 34 31 31 30 29 29 29 28 27 26
20 19 18 18 19 16 12 10 10 9 10 10 7 4 2 2 1 1 2 2 2 7 8 8 8 3 4 4 4 4 2 3 6 8 8 4 2 4 7 9 10 11 10 11 16 13 9 12 14 15 20 23 22 21 18 19 24 23 19 18 18 16 17 21 23 24 20 21 27 25 16 11 14 25 33 35 36 39 38 35 32 30 30 29 29 28 28 27
21 20 18 17 18 16 13 11 9 8 8 7 4 2 1 1 3 3 2 1 3 7 8 7 7 5 4 1 3 2 2 1 3 5 6 5 4 3 4 6 8 11 12 12 16 16 14 15 14 13 17 23 23 20 18 19 22 22 18 18 21 18 15 16 19 22 20 15 24 29 18 10 6 18 29 34 40 41 38 36 32 30 31 29 29 29 28 28
21 21 19 16 16 15 13 10 6 6 5 4 1 2 3 4 4 2 1 1 4 6 6 5 6 3 4 2 3 1 2 1 3 4 5 5 4 4 5 3 5 9 12 13 14 17 19 21 18 15 14 17 22 21 18 18 19 19 19 19 22 20 16 14 13 13 11 9 20 29 23 13 7 16 28 30 34 37 36 37 35 34 32 28 27 28 30 31
22 22 19 16 14 13 11 7 3 4 3 3 3 4 6 5 4 1 1 3 4 4 5 3 0 1 3 6 5 5 2 1 4 5 5 4 6 8 10 7 5 6 8 10 13 16 20 23 22 17 10 9 17 22 20 19 17 17 19 18 17 19 18 13 9 6 3 4 17 24 22 18 12 15 27 24 23 28 33 36 36 36 34 28 27 28 30 31
22 21 19 16 12 10 9 4 0 2 3 4 5 7 6 4 1 1 4 3 2 4 5 3 2 2 1 4 2 5 2 1 1 2 3 5 6 8 10 6 2 4 7 9 10 13 16 21 22 17 10 6 13 21 19 17 18 18 22 21 14 10 11 6 3 5 3 6 16 19 17 18 17 16 22 21 19 24 30 33 34 35 34 29 29 29 29 29
22 20 18 14 10 7 6 3 1 3 5 6 7 8 7 4 1 4 11 6 4 7 4 4 4 2 1 2 0 4 4 2 1 1 2 3 4 3 2 3 4 4 8 9 12 14 14 13 16 16 12 9 11 18 18 15 19 21 24 25 15 4 3 3 2 3 5 9 16 21 17 15 17 20 23 25 21 20 24 29 32 34 34 31 30 31 29 28
23 21 16 11 8 6 3 2 1 3 6 7 9 8 7 2 3 7 14 12 8 7 4 1 0 3 4 4 1 2 3 4 2 4 4 5 4 3 5 2 7 6 5 7 10 11 13 10 10 10 11 14 14 17 18 15 18 20 17 17 16 11 5 3 3 5 8 11 16 21 15 8 12 18 25 31 26 20 18 21 28 31 32 33 33 33 31 29
23 19 12 8 8 5 3 2 2 4 7 9 9 8 4 3 7 8 11 13 9 5 6 4 4 6 7 8 4 2 5 4 2 6 6 6 5 2 2 3 5 7 7 5 6 9 14 13 10 6 7 12 14 15 19 18 17 17 15 17 19 21 16 12 10 10 11 11 12 19 19 14 17 20 25 30 29 27 20 19 28 31 31 36 37 34 31 29
23 16 7 8 9 7 4 0 3 4 8 10 9 6 2 5 10 7 6 10 9 6 7 8 5 6 7 9 8 4 3 4 2 1 5 6 3 8 3 2 5 6 6 3 4 11 16 15 13 6 5 9 10 11 15 21 17 13 18 25 25 23 21 17 16 19 16 6 5 15 21 22 24 22 24 28 29 32 28 22 27 30 33 39 38 34 32 31
22 14 7 11 14 10 6 2 4 7 10 10 8 5 4 6 8 7 5 6 7 7 8 10 7 5 6 2 10 4 4 2 1 2 4 5 8 14 9 8 9 5 5 3 2 8 14 18 19 12 11 9 11 14 10 18 22 18 17 21 22 22 23 18 10 9 10 3 4 14 17 19 23 20 22 27 27 31 33 29 26 28 34 41 39 36 35 32
20 15 8 14 17 12 7 5 6 11 10 8 8 8 6 4 4 6 9 9 6 4 6 9 8 5 8 6 9 4 5 3 4 2 3 3 7 9 9 11 10 5 3 5 4 4 12 18 23 24 18 14 13 11 8 7 20 26 21 15 14 13 17 20 11 3 3 2 3 13 18 16 22 25 23 25 27 29 30 31 26 23 33 44 42 40 38 34
16 13 9 15 18 10 8 7 7 11 9 7 8 8 5 6 8 11 14 10 2 2 3 5 6 4 7 9 4 1 4 3 4 3 5 5 3 1 4 5 6 6 4 5 10 10 10 13 20 27 19 18 14 6 7 11 8 22 26 23 22 16 11 16 16 11 6 2 2 8 13 12 16 24 25 23 26 29 31 34 27 22 31 40 40 41 40 36
12 12 12 18 15 3 8 11 12 11 8 5 6 7 4 3 9 13 13 8 4 1 2 3 4 8 8 9 7 6 6 4 4 4 6 8 4 2 4 4 2 8 9 6 8 11 8 7 19 30 24 21 20 12 12 21 19 15 20 21 24 22 16 14 15 18 15 5 1 3 5 11 14 16 21 24 25 28 29 32 31 27 30 33 36 41 41 38
11 13 16 16 7 6 7 12 14 11 6 4 5 6 5 2 6 12 13 9 7 5 4 4 3 8 8 9 7 6 8 6 5 4 6 11 9 5 7 9 7 9 11 8 7 10 10 7 18 30 30 28 29 24 21 22 17 14 18 22 20 19 19 14 10 16 20 14 8 5 6 15 17 8 11 17 24 29 26 28 31 31 29 31 37 43 40 37
9 10 13 16 13 9 11 13 10 6 4 6 3 3 5 3 6 9 8 7 7 5 5 3 2 4 5 8 8 6 6 6 6 4 6 10 8 8 11 12 11 9 8 7 6 10 12 11 17 27 30 32 33 29 24 23 19 14 16 20 21 17 17 14 8 12 16 19 21 14 11 16 14 11 20 11 22 30 25 26 30 27 25 28 34 37 35 31
8 8 10 13 12 10 12 12 9 5 5 6 3 5 6 3 5 5 4 8 4 1 7 5 2 2 5 6 8 8 6 4 4 3 5 8 6 4 8 11 13 11 9 5 5 11 11 7 13 22 28 33 35 35 31 25 16 13 14 14 15 16 17 14 13 17 16 11 17 14 11 15 11 13 20 3 21 29 24 24 26 21 21 30 32 28 28 27
7 10 7 6 9 11 8 7 9 7 5 5 4 6 5 1 3 3 7 11 5 2 9 8 1 3 7 6 8 9 4 2 4 6 5 6 8 8 9 11 12 10 10 7 7 12 9 4 9 15 17 21 25 26 27 23 14 14 14 10 10 17 22 16 15 16 14 12 7 2 11 21 20 16 13 12 14 23 26 24 26 23 18 26 34 32 29 27
6 8 3 1 8 10 5 5 8 5 4 5 4 6 7 2 4 2 3 11 6 2 8 11 3 1 6 6 6 7 3 3 8 9 7 6 7 9 8 11 14 12 8 7 9 12 9 8 11 9 6 9 12 11 13 20 23 19 16 13 13 20 23 18 16 14 11 19 23 8 9 19 23 16 5 17 22 21 24 21 25 27 15 18 26 31 30 30
11 8 1 3 1 4 4 6 8 5 2 4 4 5 6 5 6 5 3 6 7 4 7 7 1 4 6 5 6 6 3 6 10 9 8 8 9 11 10 10 14 13 8 8 12 12 10 11 13 11 13 18 21 21 20 24 29 27 24 23 22 20 17 18 19 15 14 24 25 12 9 17 16 6 12 18 22 24 22 23 24 24 17 19 17 18 22 29
14 9 5 1 2 2 6 5 6 6 3 3 3 2 5 4 5 9 5 4 7 7 5 3 3 7 8 7 8 7 6 8 9 8 8 8 8 11 10 7 9 11 9 10 12 11 11 12 12 11 16 22 26 29 29 28 29 29 29 28 25 21 18 18 18 15 15 20 20 17 17 19 13 9 16 18 17 21 20 24 25 22 20 21 17 16 23 33
12 7 5 5 5 10 12 7 7 9 5 3 3 3 6 6 4 9 6 4 7 7 3 4 5 7 7 7 9 9 8 9 8 8 9 9 9 10 8 6 8 9 8 9 11 9 10 13 12 12 16 20 23 25 27 28 28 28 29 27 24 23 21 18 19 19 15 16 20 24 23 19 13 5 9 16 13 13 14 18 20 23 24 24 24 23 26 36
11 6 4 5 6 7 8 6 7 9 7 7 5 4 7 8 5 5 3 2 5 6 5 3 4 5 5 6 9 8 8 9 9 10 11 10 10 10 10 10 8 6 6 8 8 8 11 14 12 13 17 20 20 21 22 25 26 28 29 27 24 23 20 18 20 21 18 18 21 22 22 21 16 12 7 9 9 8 8 12 15 21 25 24 24 25 25 28
11 8 6 9 9 7 6 6 5 6 7 7 5 2 4 5 5 1 5 3 4 6 6 4 5 7 6 6 8 6 7 8 9 10 10 10 9 8 9 11 9 8 9 9 8 9 12 13 11 13 18 20 20 19 18 19 22 26 28 28 26 22 18 17 20 20 19 20 19 18 20 19 12 13 15 10 5 5 0 7 12 19 24 25 24 23 24 24
13 10 7 12 15 12 10 7 2 2 3 2 1 2 1 2 7 3 3 1 4 3 6 4 5 7 6 6 7 7 9 11 10 9 10 11 11 11 12 13 12 12 12 11 11 12 12 11 10 12 16 20 19 17 18 20 23 26 27 28 27 23 20 20 21 20 20 19 19 18 16 13 5 5 10 13 17 17 11 4 4 13 22 24 23 22 22 23
14 10 5 10 13 10 8 5 2 1 4 5 7 7 2 3 5 5 3 5 5 0 4 5 6 8 8 6 7 9 12 14 13 12 13 14 14 16 17 17 16 15 15 14 14 14 12 12 13 12 15 20 18 15 19 20 19 21 21 19 20 21 21 23 26 28 24 18 20 20 13 11 11 10 8 9 15 20 21 16 9 4 12 16 18 20 20 20
Wind_Direction
328 327 327 328 328 326 323 320 318 315 312 310 308 306 304 302 299 298 298 297 293 290 289 290 287 282 276 270 265 259 253 251 251 252 254 260 264 259 258 253 246 239 220 218 221 222 225 224 222 220 227 234 226 196 142 166 209 261 273 290 302 334 3 355 352 3 359 344 197 148 144 152 146 152 143 133 139 145 146 147 136 133 152 166 163 157 159 162
326 325 325 325 325 324 321 319 318 315 312 310 308 306 303 301 297 297 298 298 295 292 290 288 286 286 282 276 270 265 257 251 246 249 252 254 258 257 257 256 251 243 229 219 213 212 211 207 209 213 222 225 198 143 139 166 196 222 250 276 290 348 4 357 354 351 350 345 183 139 123 147 154 145 141 139 145 151 151 145 138 149 163 165 166 163 162 165
324 322 320 320 320 319 318 316 315 314 312 310 308 306 303 300 297 298 298 297 296 295 293 288 286 285 283 282 276 270 265 254 243 245 251 248 250 253 253 251 248 241 231 216 202 195 193 187 188 196 202 199 180 136 129 164 212 220 241 266 305 346 341 343 351 360 9 19 70 148 137 141 146 137 142 147 149 158 160 151 153 168 173 166 170 169 167 168
322 319 317 317 318 317 316 315 313 311 311 309 307 306 304 301 299 299 298 297 297 296 293 290 287 283 282 282 280 277 270 262 246 233 240 241 245 246 248 248 243 237 225 217 204 193 191 178 171 182 179 179 174 175 180 195 227 227 241 268 332 326 313 325 338 348 350 34 61 170 158 139 146 150 163 167 160 161 160 165 181 185 173 168 171 171 170 171
322 319 318 319 320 321 319 317 315 313 312 310 308 306 304 303 301 301 298 297 297 296 294 293 289 285 282 279 280 279 271 270 254 231 231 231 237 240 240 244 240 235 225 219 207 200 203 181 163 191 181 176 190 202 202 201 219 230 252 279 311 293 295 314 317 320 321 34 84 153 165 157 151 158 174 176 183 168 152 165 206 204 174 176 172 171 172 174
323 321 322 326 328 330 329 327 323 319 316 313 311 309 308 307 307 305 301 299 297 294 292 291 290 287 284 278 277 274 269 267 249 233 231 221 228 235 232 237 237 234 231 225 214 205 212 190 168 202 211 190 196 206 210 213 227 237 257 273 275 272 283 303 307 293 288 332 65 153 201 191 150 152 172 174 191 193 165 159 182 188 173 179 174 173 173 176
324 322 326 331 335 340 342 343 340 333 326 319 315 312 312 312 313 312 309 306 301 297 293 290 289 286 284 280 274 269 262 256 246 234 236 222 218 229 228 231 229 231 234 227 225 209 211 200 170 186 217 211 199 197 201 219 241 249 263 275 264 264 274 295 311 250 273 303 310 113 174 182 148 144 162 165 172 186 184 155 164 183 170 174 173 173 175 180
325 324 327 331 334 339 344 346 347 346 340 331 323 316 314 314 315 316 315 315 311 307 300 294 289 283 280 277 274 267 258 255 255 242 232 236 225 227 225 226 225 227 231 219 227 213 207 208 176 176 209 218 209 199 193 208 233 247 261 278 277 274 279 295 302 247 288 286 257 295 163 181 153 143 149 160 168 176 176 153 165 190 179 175 175 175 176 181
325 324 325 326 327 331 335 339 340 342 342 341 335 325 317 314 314 314 315 317 317 316 311 304 294 286 278 272 265 260 259 260 263 250 227 234 240 236 222 223 222 217 220 211 213 208 205 205 179 178 201 212 224 224 219 227 237 238 248 262 268 273 279 285 280 250 283 265 258 275 192 187 133 135 143 154 166 175 173 157 172 195 189 172 172 179 182 183
326 325 324 324 325 328 331 333 333 333 333 334 334 329 324 317 312 309 311 315 317 319 318 314 303 292 280 269 256 250 257 262 266 264 241 232 239 242 230 223 222 213 213 208 210 209 207 195 170 181 202 211 228 230 227 235 245 244 249 257 259 263 262 266 264 253 271 257 259 262 161 252 140 141 154 162 174 182 170 162 178 194 184 170 167 178 186 188
327 325 324 324 325 329 332 332 331 329 327 326 326 324 322 319 314 306 305 309 313 318 320 320 314 302 286 271 256 248 253 261 268 277 265 247 241 243 236 227 221 214 208 205 208 203 204 186 158 185 218 223 228 232 237 237 242 246 251 258 257 258 251 247 245 237 252 245 247 253 192 239 207 177 191 177 177 182 167 164 177 188 182 177 178 182 182 186
326 326 326 325 326 329 330 331 329 327 324 323 321 319 318 316 312 305 303 304 305 312 319 323 320 313 298 280 264 257 261 264 267 273 268 259 251 246 239 230 221 213 206 202 198 193 201 180 158 192 216 228 232 232 243 240 244 246 250 255 252 254 247 241 238 231 238 232 233 240 204 220 220 192 202 189 175 176 170 168 170 181 192 186 184 189 179 179
325 327 327 326 326 327 328 328 326 323 321 319 318 318 317 314 309 304 302 301 301 302 311 320 321 321 308 294 281 270 270 270 268 271 273 267 256 248 241 230 220 211 203 195 183 175 196 179 167 200 211 220 235 231 223 217 251 253 252 255 254 257 250 234 233 234 234 226 222 219 202 215 217 198 202 193 180 174 173 179 169 177 195 193 179 186 180 181
323 324 325 327 326 326 326 325 323 321 319 318 316 316 316 315 311 304 299 298 299 295 299 313 321 324 312 303 297 281 289 287 272 272 274 265 254 245 239 229 219 209 199 199 188 168 185 200 195 210 215 221 232 233 233 235 246 253 250 248 249 256 252 235 227 233 232 224 218 217 213 214 208 206 209 193 186 180 177 185 175 176 190 189 178 186 185 182
321 321 324 326 324 325 324 323 322 320 318 318 316 316 316 316 313 308 301 294 292 290 292 303 320 327 317 308 300 307 340 315 293 296 282 264 256 240 232 223 212 205 198 205 203 176 166 216 227 219 218 222 228 233 242 246 237 235 245 244 240 245 252 245 232 229 230 221 213 218 218 200 191 200 207 199 195 188 180 183 178 177 183 184 185 188 186 180
324 323 325 326 325 325 323 322 322 320 320 318 317 317 317 318 315 311 305 292 284 281 282 293 315 329 323 319 330 359 354 335 331 335 323 296 261 231 224 229 215 203 197 201 206 189 171 195 225 226 222 218 225 234 246 256 244 231 241 246 241 241 245 246 236 226 225 218 209 209 206 195 187 194 207 207 200 191 185 186 181 179 180 186 194 190 186 183
328 327 327 327 326 325 324 324 322 320 320 317 317 317 318 318 313 310 306 293 276 267 274 287 305 352 339 319 355 17 334 315 333 329 314 313 278 235 216 235 235 209 198 198 201 199 191 193 205 220 223 217 217 228 240 245 241 235 238 244 245 242 241 241 238 223 220 216 207 202 201 210 202 199 212 209 201 199 192 193 187 184 185 188 198 194 191 191
330 328 327 326 327 327 326 325 322 321 318 316 316 314 318 319 314 314 310 301 267 243 261 263 245 51 25 333 346 348 283 296 326 322 301 296 276 252 220 217 239 220 199 198 200 203 206 202 201 211 219 218 208 207 223 229 230 233 232 235 239 237 240 243 238 225 218 214 206 200 195 203 207 198 204 200 201 209 197 196 192 189 191 187 195 198 195 194
330 327 327 326 327 328 326 325 322 320 318 317 316 314 318 319 313 311 306 301 255 224 233 235 246 250 46 0 326 291 289 309 330 314 307 322 272 253 233 213 217 218 200 200 207 210 214 211 209 210 214 219 213 207 217 226 232 238 238 244 245 239 242 244 238 232 224 211 200 200 195 190 199 196 195 192 195 205 196 194 193 190 195 191 189 196 199 196
328 326 327 328 327 327 326 325 323 322 319 316 316 316 317 313 301 297 301 297 258 241 238 237 253 254 261 295 262 261 293 323 354 320 328 354 330 234 231 212 194 200 201 206 218 219 217 214 215 218 215 217 221 221 224 228 235 245 255 264 269 269 264 253 246 242 237 218 197 196 200 193 199 202 196 191 189 196 198 195 194 192 196 195 190 190 197 200
327 326 327 327 327 326 326 327 327 325 321 318 317 317 318 315 298 292 302 298 277 270 253 237 240 249 256 254 246 262 288 302 52 313 311 346 353 223 202 191 183 201 208 203 213 230 225 218 218 225 225 222 224 233 238 237 238 247 259 268 274 282 278 267 257 251 250 228 196 192 202 196 199 205 196 190 191 197 202 199 197 200 200 197 195 192 193 199
328 327 326 327 327 326 327 331 331 328 326 323 319 319 322 319 305 300 303 298 284 282 275 259 245 239 251 262 262 261 236 216 23 281 292 332 355 93 166 179 185 207 222 211 208 222 231 228 225 226 230 233 230 231 240 242 244 247 256 266 271 275 279 278 256 242 249 237 201 193 198 196 200 207 200 197 204 208 214 214 208 205 203 198 195 197 198 196
330 328 326 328 329 325 327 333 331 330 327 321 318 319 322 317 308 306 305 303 290 278 276 274 239 148 70 299 308 115 161 123 82 249 278 313 323 175 176 223 210 213 230 228 219 222 230 238 244 237 230 233 237 238 238 241 244 245 248 257 265 266 269 276 259 237 244 239 221 204 197 196 196 198 200 206 216 217 220 223 216 207 206 204 198 198 203 200
331 329 327 327 330 326 326 332 330 324 318 316 321 317 318 321 312 308 303 302 297 280 251 174 183 153 192 256 227 118 154 124 110 233 272 314 192 193 207 227 229 226 232 233 232 233 234 239 258 266 244 228 233 239 239 243 245 244 244 247 255 257 258 269 271 270 269 253 238 216 196 193 190 186 191 204 212 212 215 217 211 208 209 209 204 201 204 204
331 329 326 323 328 326 323 329 328 318 316 321 311 308 323 339 320 313 306 304 317 316 199 160 173 184 193 207 170 141 145 128 100 251 267 267 207 222 224 220 226 232 236 238 239 243 244 243 244 252 253 234 231 235 235 239 243 245 245 245 250 252 253 263 270 283 291 277 251 223 201 189 190 190 192 200 203 204 211 215 210 208 206 206 209 208 205 205
330 328 325 321 326 328 321 322 317 305 305 294 270 296 323 336 321 319 315 313 315 43 150 160 158 153 145 128 137 119 94 245 207 201 256 286 249 228 220 213 226 234 232 240 249 250 250 250 243 241 245 240 233 235 233 232 239 246 244 242 249 251 256 263 267 281 289 283 272 247 229 196 187 191 197 204 205 204 206 209 208 207 203 205 213 214 211 207
330 327 324 321 325 330 321 313 307 294 293 295 292 299 316 322 321 337 328 313 235 173 150 152 137 119 101 85 128 118 78 249 219 215 268 324 271 237 226 208 220 237 229 238 254 254 246 245 243 241 246 245 237 234 234 230 237 243 239 240 247 243 254 265 265 271 278 281 283 268 250 226 193 193 204 209 205 201 201 203 206 207 205 209 216 216 215 214
333 329 329 325 325 329 325 313 307 297 290 298 306 303 325 327 298 55 24 351 152 167 171 165 156 161 303 294 196 168 158 245 245 252 272 318 342 274 244 214 220 235 231 251 264 257 239 240 241 240 246 250 244 237 237 232 235 240 237 241 248 243 250 261 260 262 268 278 281 276 273 260 204 193 203 205 200 195 196 202 208 210 208 211 216 213 213 215
335 331 333 328 324 325 322 318 308 295 290 298 307 307 351 166 161 96 45 344 125 161 187 201 217 261 321 276 205 141 95 220 272 266 273 314 329 308 287 247 241 244 236 254 271 260 245 242 245 247 247 247 243 242 243 234 231 235 234 239 249 253 257 255 252 258 260 263 269 271 279 287 220 190 193 195 197 195 198 209 215 213 211 212 215 211 211 215
336 334 335 329 324 319 317 325 314 291 289 281 266 160 173 160 133 61 335 159 126 142 166 203 236 266 12 344 240 170 44 273 241 272 297 313 292 307 331 290 257 259 245 247 261 263 257 248 248 259 262 251 240 241 246 237 232 234 232 239 249 256 266 253 236 251 262 251 258 264 269 280 268 209 202 200 202 202 203 210 213 213 211 211 214 213 211 216
339 336 335 330 325 316 316 331 305 270 253 197 167 149 150 126 98 19 314 128 115 112 135 155 71 50 341 309 242 217 300 316 227 265 298 291 274 294 312 305 275 267 262 256 259 269 264 250 248 250 256 261 243 240 245 240 237 232 227 236 245 249 260 256 231 243 294 272 262 266 265 268 272 221 206 205 214 218 213 211 211 212 213 212 215 216 214 217
342 338 335 331 326 321 321 329 203 218 182 147 147 146 122 77 49 303 327 285 192 98 116 158 81 76 330 325 227 194 200 117 151 280 286 286 282 281 289 295 269 268 282 285 290 293 273 253 249 240 232 266 250 241 246 241 230 226 227 231 232 238 251 249 214 236 263 271 264 268 269 263 267 252 221 206 210 219 220 220 217 213 214 217 219 219 219 220
345 341 334 328 329 334 328 332 73 154 144 131 145 136 94 54 301 357 1 351 122 93 82 147 107 58 302 316 124 144 166 189 76 13 326 321 300 308 7 153 186 281 307 314 324 323 308 272 244 230 234 256 246 238 246 240 229 232 229 223 216 211 231 202 180 225 257 271 260 261 272 265 257 258 235 217 214 216 219 225 225 221 221 226 227 224 222 221
349 345 339 340 350 353 354 8 32 149 135 140 144 112 77 15 321 18 28 33 63 60 31 155 77 325 273 267 325 107 233 273 256 247 302 337 299 351 48 196 229 254 280 308 325 327 327 303 235 226 253 255 246 238 238 238 238 243 233 216 222 239 246 226 180 167 203 237 245 244 253 253 244 246 228 217 221 225 228 234 235 231 229 230 227 220 216 217
351 353 357 9 19 22 21 354 239 157 135 145 129 89 61 347 356 16 36 32 21 26 38 17 306 289 262 249 246 209 246 285 269 238 270 296 292 350 35 294 287 272 263 288 325 328 320 291 248 274 286 252 257 248 237 242 244 240 229 218 227 237 246 259 253 240 226 224 234 229 225 231 245 247 232 227 231 232 237 246 238 230 224 222 219 211 211 219
353 360 6 7 16 30 36 334 195 141 133 132 105 70 12 14 20 11 12 22 14 8 11 355 314 277 270 234 195 172 248 270 284 247 245 259 29 66 93 17 4 304 284 298 13 5 332 276 236 280 285 234 282 296 248 240 239 232 225 222 223 228 240 256 262 267 268 264 252 233 223 225 233 239 235 235 239 238 238 244 242 236 223 214 210 208 213 222
356 4 21 25 18 6 1 39 117 124 127 112 78 40 341 360 22 15 331 333 5 4 343 344 341 308 323 156 153 127 355 303 183 342 257 215 78 67 71 56 39 353 311 310 43 26 332 275 237 260 293 263 291 317 278 230 225 233 237 224 216 220 234 248 262 275 269 263 270 256 242 218 210 221 230 226 230 237 236 235 242 244 229 215 209 212 220 223
360 3 29 38 24 6 7 40 116 127 111 70 28 5 1 6 18 6 330 315 324 317 316 348 357 327 346 42 130 145 345 39 107 341 294 152 99 73 73 69 49 20 298 298 326 343 326 297 252 253 290 298 289 306 317 246 221 232 245 240 228 229 236 242 246 272 275 265 258 267 270 242 207 208 218 218 220 225 225 226 236 240 220 211 209 214 220 220
6 5 11 5 358 7 51 66 113 117 83 31 357 351 12 35 13 345 332 337 338 275 326 9 10 354 356 9 46 76 341 37 72 359 332 21 55 7 31 61 57 29 352 331 341 334 342 327 269 257 277 295 290 297 346 349 289 242 245 252 260 274 270 247 239 236 246 282 269 265 280 270 228 218 221 218 213 214 215 217 226 229 209 206 211 215 215 216
16 20 6 350 344 19 92 69 65 67 49 12 345 345 349 29 19 5 356 18 98 358 5 116 34 11 16 15 16 27 35 43 38 4 344 11 45 199 318 336 15 10 356 352 345 325 328 321 275 269 273 281 283 282 308 333 336 293 272 271 265 264 270 274 263 248 239 236 291 269 273 275 266 245 236 228 209 205 212 213 217 217 203 204 216 215 210 213
37 35 13 8 36 129 98 52 34 30 18 336 315 340 353 356 9 5 5 40 78 23 21 114 51 2 5 12 12 28 45 46 29 35 25 20 40 60 6 342 323 331 339 346 332 303 301 292 278 279 283 286 279 268 278 299 311 314 311 309 294 269 259 266 276 257 242 229 237 267 284 270 271 293 294 257 214 199 201 204 212 219 212 208 212 209 206 211
53 51 28 42 76 88 64 44 16 6 1 342 310 320 349 8 5 347 347 34 60 36 33 62 342 336 358 13 22 20 18 18 14 33 29 10 18 43 30 12 355 334 324 344 332 295 295 292 289 286 283 284 273 257 263 278 285 292 298 309 316 300 270 260 275 285 259 228 223 241 276 264 258 330 340 296 203 191 186 191 207 223 222 211 206 205 207 212
46 53 41 51 58 41 45 44 15 2 3 358 351 321 319 339 17 9 34 37 26 66 46 25 275 11 7 9 34 24 358 16 24 348 349 357 0 36 26 7 3 349 325 326 288 284 294 299 305 297 283 278 269 256 257 268 288 316 311 318 332 322 309 299 298 313 310 252 214 217 252 251 251 329 342 315 185 189 185 184 196 209 211 202 201 207 212 214
62 67 59 46 27 5 7 25 13 7 21 31 31 9 10 66 358 19 68 32 345 188 40 13 227 58 1 343 27 24 1 43 16 326 313 348 3 16 9 347 350 353 344 347 306 292 301 297 310 317 304 290 278 264 264 272 300 339 332 331 353 347 344 331 295 302 325 328 328 190 226 243 258 303 350 63 127 174 178 176 188 199 198 191 197 209 215 221
55 67 81 45 34 26 14 27 28 29 44 38 38 43 51 47 326 306 69 18 353 172 23 354 282 9 342 323 357 7 338 309 333 323 278 270 337 7 14 357 354 349 333 324 305 302 309 283 280 301 313 296 287 282 298 311 318 321 310 303 324 341 350 343 315 312 330 336 340 340 239 264 282 297 19 76 83 119 145 154 180 194 171 144 177 198 207 218
24 36 94 203 123 69 59 58 46 37 35 29 46 71 49 28 7 346 312 7 21 46 18 3 110 53 15 359 350 350 339 314 323 330 302 290 321 331 326 338 351 344 313 287 292 302 309 286 273 276 270 268 274 275 286 308 313 308 305 309 314 317 329 336 327 325 329 327 323 303 296 325 332 17 108 105 77 78 107 132 157 176 150 117 145 175 183 200
27 41 66 51 241 16 37 71 59 24 357 14 41 73 33 24 24 8 359 51 37 13 4 39 74 29 15 10 355 344 335 322 321 333 324 309 315 314 308 322 338 326 298 282 288 297 302 286 278 285 278 273 279 280 282 293 300 299 300 306 311 308 313 322 315 310 321 322 312 303 315 331 349 60 108 118 84 65 91 117 128 141 134 114 116 141 162 180
26 39 55 41 33 30 28 45 47 23 19 58 94 103 43 30 31 23 22 47 21 354 358 66 43 13 2 354 346 337 332 332 327 324 315 307 309 308 306 319 322 313 303 293 287 282 279 275 275 283 282 281 285 286 287 290 291 292 290 292 302 304 300 306 304 300 305 304 304 310 311 310 318 351 115 120 90 68 93 108 115 132 135 120 109 120 152 175
24 32 67 83 88 66 45 42 32 18 27 61 84 95 50 36 39 56 79 76 17 345 331 14 6 350 354 345 335 329 332 333 324 316 310 306 310 307 304 308 305 306 320 314 300 284 277 277 280 282 281 283 286 287 291 291 288 288 286 283 290 293 288 293 299 295 290 290 299 307 305 302 300 281 217 135 80 54 108 129 132 139 144 135 119 115 130 158
27 41 79 98 105 111 87 55 30 17 29 62 80 82 61 26 336 210 148 101 21 353 342 342 329 331 338 332 324 319 316 308 301 306 304 293 289 287 293 299 294 296 305 301 296 289 281 280 284 288 286 283 284 289 293 293 290 289 285 281 282 281 276 281 290 288 281 286 301 308 305 305 293 267 255 224 222 310 65 144 138 142 149 144 130 123 119 126
28 42 75 97 99 97 77 50 2 340 8 43 18 306 179 31 327 281 169 261 294 341 353 332 322 326 319 319 321 305 292 282 274 285 289 281 279 279 280 280 281 289 290 287 292 291 285 283 283 291 293 285 285 292 291 291 292 288 283 282 280 275 270 275 282 280 271 280 303 310 310 318 316 271 265 237 232 251 261 251 127 141 152 148 135 130 125 117
31 40 59 88 83 71 49 20 300 1 15 1 357 342 342 47 348 314 279 257 234 334 340 313 321 321 311 314 314 301 293 282 275 285 287 278 271 269 269 268 268 274 275 276 282 283 279 280 280 285 289 286 287 292 293 297 298 286 280 286 286 279 277 279 278 272 264 271 293 299 307 318 300 284 280 254 238 243 249 258 270 188 154 149 139 136 136 128
Height
3151 3150 3149 3148 3147 3146 3145 3144 3143 3142 3141 3141 3140 3140 3139 3138 3138 3137 3136 3136 3136 3135 3135 3134 3134 3134 3134 3134 3134 3135 3135 3135 3136 3137 3137 3138 3139 3140 3140 3141 3142 3142 3143 3144 3145 3147 3149 3150 3152 3153 3155 3157 3158 3159 3160 3161 3164 3164 3163 3163 3163 3164 3165 3165 3166 3167 3166 3165 3166 3167 3167 3167 3167 3166 3165 3166 3167 3168 3168 3170 3171 3171 3173 3175 3175 3176 3177 3178
3151 3149 3148 3147 3146 3145 3144 3143 3142 3142 3141 3140 3139 3139 3138 3138 3137 3136 3136 3135 3135 3134 3134 3134 3133 3133 3132 3133 3133 3133 3134 3134 3135 3136 3137 3138 3138 3139 3139 3140 3141 3142 3143 3144 3145 3147 3148 3149 3150 3151 3153 3155 3157 3159 3159 3161 3163 3164 3164 3163 3163 3164 3165 3166 3167 3167 3167 3166 3166 3167 3167 3167 3168 3167 3166 3167 3167 3168 3169 3170 3171 3171 3172 3174 3176 3177 3178 3179
3150 3149 3147 3146 3145 3144 3143 3142 3141 3141 3140 3139 3139 3138 3137 3137 3136 3136 3135 3135 3134 3134 3133 3133 3132 3132 3131 3131 3131 3132 3132 3132 3134 3135 3136 3136 3137 3138 3138 3139 3140 3141 3142 3143 3144 3145 3147 3148 3149 3150 3152 3153 3155 3158 3159 3161 3163 3163 3164 3163 3163 3164 3166 3167 3167 3168 3167 3166 3166 3167 3167 3167 3168 3168 3168 3169 3169 3169 3170 3170 3171 3171 3171 3173 3175 3176 3178 3179
3149 3148 3147 3146 3145 3143 3142 3141 3140 3139 3139 3138 3138 3137 3137 3136 3136 3135 3135 3134 3133 3133 3132 3132 3131 3130 3130 3130 3130 3130 3130 3130 3132 3134 3134 3135 3136 3137 3137 3138 3139 3140 3141 3142 3142 3144 3144 3145 3148 3149 3150 3152 3155 3157 3159 3161 3163 3163 3164 3163 3163 3164 3166 3167 3168 3168 3167 3167 3167 3166 3167 3167 3168 3169 3170 3170 3170 3170 3170 3171 3170 3171 3172 3173 3174 3176 3177 3179
3148 3147 3146 3145 3144 3143 3142 3141 3139 3138 3138 3137 3136 3136 3136 3135 3135 3134 3134 3133 3133 3132 3131 3131 3130 3130 3129 3129 3129 3129 3129 3128 3130 3132 3133 3133 3134 3135 3137 3137 3138 3139 3140 3140 3142 3143 3143 3143 3146 3149 3150 3152 3155 3157 3158 3160 3162 3163 3163 3163 3163 3165 3166 3167 3167 3167 3167 3167 3167 3167 3166 3167 3169 3169 3169 3170 3170 3170 3171 3171 3171 3172 3173 3173 3174 3176 3177 3179
3147 3146 3145 3144 3143 3142 3141 3140 3139 3138 3137 3136 3135 3135 3134 3134 3134 3133 3133 3132 3132 3131 3130 3130 3129 3129 3128 3128 3128 3128 3128 3127 3128 3130 3131 3132 3133 3134 3135 3136 3137 3138 3139 3140 3141 3142 3143 3143 3145 3148 3150 3152 3154 3156 3158 3160 3162 3163 3163 3163 3164 3165 3166 3167 3167 3167 3167 3167 3167 3167 3166 3166 3169 3170 3169 3170 3171 3171 3171 3171 3171 3172 3174 3174 3175 3176 3177 3178
3146 3145 3144 3143 3142 3141 3140 3139 3138 3137 3136 3135 3134 3134 3133 3133 3133 3132 3132 3131 3131 3130 3129 3129 3128 3128 3127 3127 3127 3127 3127 3125 3126 3129 3130 3131 3132 3133 3134 3135 3136 3137 3138 3140 3140 3141 3143 3143 3144 3148 3151 3152 3154 3155 3157 3159 3161 3162 3162 3163 3164 3165 3165 3166 3167 3167 3166 3166 3166 3167 3167 3166 3168 3170 3169 3170 3172 3172 3172 3171 3172 3172 3174 3175 3175 3176 3178 3179
3145 3144 3143 3142 3141 3140 3139 3138 3138 3137 3136 3135 3134 3133 3132 3132 3132 3131 3131 3130 3130 3129 3128 3128 3127 3127 3126 3126 3126 3126 3125 3123 3124 3128 3129 3130 3131 3132 3133 3134 3134 3136 3138 3139 3140 3141 3142 3143 3144 3147 3151 3152 3154 3155 3156 3158 3160 3160 3161 3162 3163 3163 3164 3166 3166 3167 3166 3165 3165 3167 3168 3167 3169 3170 3170 3170 3171 3172 3171 3172 3172 3172 3174 3175 3176 3177 3178 3180
3144 3143 3142 3141 3140 3139 3138 3137 3136 3136 3135 3134 3133 3132 3132 3131 3131 3130 3130 3129 3129 3128 3127 3127 3126 3126 3125 3125 3125 3125 3124 3123 3124 3126 3128 3129 3130 3130 3131 3132 3133 3135 3136 3138 3139 3140 3141 3142 3144 3147 3150 3152 3154 3155 3157 3158 3159 3160 3160 3162 3162 3161 3163 3165 3165 3166 3166 3164 3164 3166 3167 3167 3169 3170 3170 3171 3171 3171 3172 3173 3173 3173 3174 3176 3177 3178 3179 3180
3143 3142 3141 3140 3139 3138 3137 3136 3135 3134 3134 3133 3132 3131 3131 3130 3130 3129 3129 3128 3128 3127 3126 3126 3125 3124 3124 3124 3124 3123 3123 3123 3123 3125 3126 3128 3128 3129 3130 3131 3132 3134 3135 3137 3138 3139 3141 3142 3144 3148 3150 3151 3153 3154 3156 3157 3157 3158 3159 3160 3161 3161 3162 3163 3164 3165 3166 3164 3162 3165 3167 3167 3167 3168 3170 3171 3171 3171 3172 3173 3173 3174 3175 3176 3177 3179 3180 3181
3142 3141 3139 3138 3137 3136 3135 3135 3134 3133 3132 3131 3131 3130 3130 3129 3129 3128 3128 3128 3127 3126 3126 3125 3124 3123 3123 3123 3123 3122 3122 3123 3123 3124 3125 3126 3127 3127 3129 3130 3131 3133 3134 3135 3137 3139 3141 3142 3144 3148 3150 3150 3152 3153 3154 3155 3156 3156 3157 3157 3157 3159 3161 3162 3163 3164 3166 3165 3162 3163 3167 3168 3167 3168 3169 3170 3170 3170 3171 3173 3174 3175 3176 3177 3178 3179 3181 3182
3140 3139 3138 3137 3136 3135 3134 3133 3132 3131 3131 3130 3129 3129 3128 3128 3127 3127 3126 3126 3126 3126 3125 3124 3123 3122 3122 3122 3122 3121 3122 3122 3122 3123 3124 3124 3125 3126 3127 3129 3130 3132 3133 3135 3136 3138 3141 3141 3143 3147 3149 3150 3151 3152 3153 3153 3154 3154 3155 3154 3155 3156 3158 3160 3162 3163 3165 3166 3164 3163 3165 3167 3167 3168 3168 3169 3170 3170 3171 3173 3175 3176 3176 3179 3180 3180 3182 3182
3139 3138 3137 3136 3135 3133 3132 3131 3130 3129 3129 3128 3127 3127 3126 3126 3126 3125 3125 3125 3125 3124 3124 3123 3122 3122 3121 3121 3121 3121 3121 3121 3121 3122 3122 3123 3124 3125 3126 3127 3129 3130 3132 3134 3135 3138 3140 3141 3142 3145 3147 3148 3150 3151 3151 3152 3153 3154 3154 3154 3154 3154 3155 3157 3159 3161 3163 3164 3165 3164 3164 3165 3166 3167 3168 3168 3169 3170 3170 3172 3174 3176 3177 3179 3180 3180 3182 3183
3138 3137 3136 3134 3133 3132 3131 3130 3129 3128 3127 3126 3126 3125 3124 3124 3124 3123 3123 3123 3123 3123 3123 3122 3122 3121 3120 3120 3120 3120 3120 3119 3120 3121 3121 3122 3122 3123 3124 3126 3127 3129 3131 3133 3133 3135 3139 3141 3142 3143 3145 3146 3147 3148 3148 3149 3150 3152 3153 3153 3153 3153 3152 3155 3157 3159 3160 3162 3164 3164 3164 3165 3165 3166 3167 3168 3169 3169 3170 3171 3173 3175 3176 3178 3179 3181 3182 3184
3137 3135 3134 3133 3132 3131 3130 3128 3127 3126 3125 3124 3124 3123 3123 3122 3122 3122 3122 3122 3122 3122 3121 3121 3121 3120 3119 3119 3119 3119 3119 3119 3119 3120 3120 3121 3121 3122 3123 3125 3126 3128 3130 3132 3132 3133 3137 3140 3141 3141 3142 3144 3145 3146 3147 3147 3148 3149 3150 3150 3151 3151 3151 3154 3155 3156 3158 3159 3161 3162 3163 3165 3165 3166 3166 3168 3169 3169 3170 3171 3172 3174 3175 3177 3178 3180 3182 3184
3135 3134 3133 3132 3131 3129 3128 3127 3126 3125 3123 3122 3122 3121 3121 3120 3120 3120 3120 3120 3120 3120 3120 3119 3120 3119 3119 3119 3118 3118 3119 3119 3119 3119 3120 3120 3121 3120 3122 3123 3125 3126 3128 3130 3132 3132 3134 3137 3139 3140 3141 3143 3144 3145 3146 3147 3147 3147 3148 3148 3149 3150 3151 3152 3152 3153 3155 3157 3158 3159 3161 3163 3164 3165 3166 3167 3168 3169 3170 3170 3171 3173 3174 3176 3176 3179 3181 3182
3134 3133 3132 3131 3129 3128 3127 3126 3124 3123 3122 3121 3120 3119 3119 3118 3118 3118 3118 3118 3118 3118 3118 3118 3118 3119 3118 3118 3118 3119 3119 3119 3119 3119 3119 3120 3120 3120 3121 3122 3124 3125 3127 3129 3130 3132 3133 3134 3137 3138 3140 3141 3143 3145 3146 3145 3144 3145 3147 3147 3148 3149 3149 3150 3149 3150 3152 3154 3155 3156 3159 3161 3162 3164 3165 3166 3167 3167 3169 3169 3170 3171 3173 3175 3176 3177 3180 3181
3133 3132 3130 3129 3128 3127 3126 3124 3123 3122 3121 3120 3118 3118 3117 3116 3115 3115 3116 3116 3117 3117 3116 3116 3117 3118 3118 3117 3118 3119 3119 3118 3118 3118 3118 3119 3119 3120 3120 3121 3123 3124 3126 3127 3129 3130 3132 3133 3135 3137 3138 3139 3140 3142 3142 3140 3142 3145 3146 3146 3146 3147 3147 3147 3147 3148 3149 3151 3153 3154 3157 3159 3161 3162 3163 3164 3165 3166 3167 3168 3169 3171 3172 3174 3174 3176 3178 3179
3132 3130 3129 3128 3127 3126 3124 3123 3121 3120 3119 3118 3117 3116 3115 3115 3113 3113 3114 3115 3115 3116 3115 3115 3116 3117 3117 3117 3118 3118 3118 3118 3117 3117 3117 3118 3118 3119 3119 3120 3122 3123 3125 3126 3127 3129 3131 3133 3134 3134 3135 3136 3137 3139 3138 3139 3143 3144 3144 3144 3145 3145 3146 3145 3145 3146 3147 3148 3150 3152 3154 3157 3159 3161 3163 3163 3164 3165 3166 3167 3169 3170 3172 3173 3172 3174 3176 3178
3130 3129 3128 3126 3125 3124 3122 3121 3120 3118 3117 3116 3115 3114 3114 3113 3112 3112 3113 3113 3113 3114 3114 3113 3114 3115 3116 3116 3117 3117 3117 3117 3117 3116 3116 3117 3118 3118 3119 3119 3121 3122 3124 3126 3127 3128 3130 3131 3131 3132 3133 3135 3137 3138 3139 3141 3143 3143 3143 3143 3143 3144 3144 3144 3144 3143 3145 3147 3147 3149 3152 3154 3156 3159 3162 3163 3163 3163 3164 3165 3168 3169 3170 3171 3171 3172 3174 3176
3129 3127 3126 3125 3123 3122 3120 3119 3118 3116 3115 3114 3113 3112 3112 3112 3111 3110 3111 3111 3111 3111 3112 3112 3112 3113 3114 3115 3115 3115 3116 3116 3116 3116 3116 3117 3117 3117 3118 3119 3120 3122 3123 3125 3127 3128 3129 3128 3129 3131 3133 3135 3137 3139 3139 3141 3142 3142 3142 3141 3141 3142 3141 3142 3142 3141 3143 3145 3145 3147 3151 3151 3152 3156 3159 3161 3161 3161 3161 3163 3166 3168 3169 3170 3170 3171 3173 3176
3127 3126 3124 3123 3122 3120 3119 3118 3116 3115 3113 3112 3111 3110 3110 3110 3110 3110 3109 3109 3109 3109 3110 3110 3110 3111 3112 3113 3114 3114 3115 3115 3116 3116 3116 3117 3118 3117 3118 3119 3120 3121 3123 3125 3126 3127 3127 3126 3128 3131 3133 3135 3136 3138 3139 3140 3141 3141 3140 3140 3140 3140 3139 3138 3139 3140 3141 3143 3143 3144 3148 3148 3147 3151 3154 3157 3158 3159 3159 3160 3163 3166 3168 3168 3169 3170 3172 3174
3125 3124 3122 3121 3120 3118 3117 3116 3115 3113 3112 3111 3110 3109 3109 3109 3109 3109 3108 3108 3107 3107 3108 3108 3109 3111 3112 3112 3113 3113 3114 3115 3116 3116 3115 3116 3117 3117 3118 3119 3120 3122 3123 3124 3125 3126 3125 3126 3128 3130 3132 3134 3135 3136 3137 3138 3139 3140 3140 3140 3139 3139 3138 3136 3137 3139 3140 3142 3142 3142 3144 3145 3145 3147 3150 3153 3155 3156 3158 3160 3161 3164 3166 3166 3168 3170 3170 3172
3123 3122 3120 3119 3118 3116 3115 3114 3113 3112 3111 3110 3108 3108 3108 3108 3108 3108 3107 3107 3106 3106 3107 3107 3109 3110 3112 3112 3113 3113 3114 3114 3115 3116 3116 3116 3117 3117 3118 3120 3120 3121 3123 3123 3124 3124 3124 3126 3128 3129 3130 3132 3133 3134 3136 3136 3137 3137 3138 3138 3138 3137 3136 3135 3136 3138 3138 3139 3140 3141 3142 3143 3143 3145 3148 3151 3153 3154 3155 3157 3160 3163 3165 3166 3167 3169 3169 3171
3122 3120 3118 3117 3116 3115 3113 3113 3112 3110 3110 3109 3107 3107 3107 3108 3108 3107 3106 3106 3105 3106 3106 3107 3109 3110 3110 3111 3112 3113 3114 3114 3115 3116 3116 3116 3117 3117 3118 3119 3120 3120 3122 3123 3123 3123 3123 3125 3127 3127 3128 3130 3131 3132 3133 3135 3135 3135 3136 3137 3138 3137 3135 3134 3135 3137 3137 3135 3136 3140 3140 3140 3140 3141 3143 3146 3149 3150 3151 3154 3156 3160 3163 3164 3165 3167 3168 3170
3120 3119 3117 3115 3114 3114 3112 3111 3110 3109 3108 3107 3107 3106 3107 3107 3107 3107 3106 3105 3105 3106 3107 3107 3109 3110 3110 3111 3112 3112 3113 3114 3115 3115 3115 3116 3116 3116 3116 3117 3119 3119 3120 3122 3122 3122 3122 3124 3125 3125 3127 3128 3129 3129 3131 3133 3134 3133 3134 3135 3137 3136 3134 3133 3134 3136 3136 3134 3134 3137 3137 3137 3138 3138 3138 3142 3144 3145 3148 3150 3153 3156 3159 3160 3162 3165 3167 3168
3119 3117 3116 3113 3112 3112 3111 3110 3109 3108 3106 3106 3106 3106 3106 3107 3107 3107 3106 3105 3105 3106 3107 3108 3109 3109 3110 3112 3112 3112 3113 3113 3114 3115 3115 3115 3115 3114 3115 3116 3117 3118 3120 3120 3120 3120 3121 3123 3124 3124 3125 3126 3127 3127 3129 3131 3132 3131 3132 3133 3134 3135 3135 3132 3133 3134 3135 3134 3132 3132 3135 3135 3134 3134 3134 3137 3140 3141 3144 3147 3150 3152 3155 3157 3159 3163 3165 3167
3118 3116 3115 3112 3110 3109 3109 3108 3107 3106 3105 3105 3105 3106 3106 3106 3107 3107 3106 3106 3106 3106 3107 3108 3108 3110 3110 3111 3112 3112 3112 3113 3114 3114 3114 3115 3115 3114 3115 3116 3116 3116 3118 3119 3118 3118 3119 3121 3123 3124 3124 3123 3124 3125 3127 3129 3129 3129 3131 3132 3132 3134 3134 3132 3132 3132 3134 3134 3128 3127 3132 3132 3131 3132 3133 3134 3137 3139 3141 3144 3147 3149 3151 3153 3156 3159 3163 3165
3116 3114 3113 3111 3109 3107 3107 3106 3106 3105 3105 3104 3105 3105 3105 3106 3107 3107 3107 3108 3106 3105 3107 3108 3109 3110 3110 3111 3111 3112 3112 3113 3114 3114 3114 3115 3115 3115 3115 3116 3116 3115 3116 3117 3117 3116 3117 3117 3119 3121 3121 3121 3122 3123 3125 3127 3127 3129 3131 3130 3130 3131 3132 3132 3131 3131 3133 3133 3127 3125 3131 3132 3131 3131 3132 3133 3134 3135 3139 3141 3144 3146 3148 3150 3153 3156 3160 3163
3114 3112 3111 3109 3107 3106 3105 3105 3104 3104 3104 3104 3104 3105 3105 3106 3106 3107 3108 3108 3106 3106 3108 3109 3109 3110 3110 3110 3111 3112 3113 3114 3114 3114 3114 3115 3115 3115 3115 3115 3115 3115 3115 3115 3115 3115 3114 3113 3114 3117 3118 3119 3121 3122 3123 3124 3126 3128 3129 3129 3129 3129 3130 3130 3129 3129 3130 3129 3126 3125 3129 3133 3132 3129 3129 3131 3131 3132 3136 3139 3141 3144 3146 3148 3150 3154 3157 3160
3113 3110 3109 3108 3106 3105 3104 3104 3104 3103 3104 3104 3104 3105 3105 3106 3107 3107 3107 3106 3106 3107 3108 3109 3110 3110 3111 3111 3111 3112 3113 3114 3114 3114 3114 3115 3114 3114 3114 3114 3114 3115 3115 3114 3115 3115 3114 3112 3112 3115 3116 3118 3120 3121 3122 3123 3124 3126 3127 3128 3129 3128 3128 3128 3128 3128 3129 3128 3126 3126 3129 3131 3130 3128 3128 3130 3130 3130 3131 3134 3138 3141 3144 3147 3148 3150 3154 3156
3111 3109 3108 3106 3105 3104 3103 3103 3103 3103 3103 3104 3104 3105 3105 3106 3107 3107 3106 3105 3107 3108 3109 3109 3110 3111 3111 3111 3112 3112 3113 3114 3114 3114 3114 3114 3115 3115 3114 3114 3115 3115 3114 3114 3114 3114 3113 3112 3112 3114 3115 3117 3118 3118 3120 3122 3122 3124 3125 3126 3127 3127 3127 3128 3128 3127 3128 3129 3127 3126 3128 3128 3127 3126 3127 3128 3129 3129 3127 3128 3132 3136 3139 3143 3145 3146 3149 3153
3110 3108 3106 3105 3104 3103 3103 3102 3102 3103 3103 3103 3104 3105 3106 3107 3107 3107 3106 3106 3107 3108 3109 3110 3110 3111 3112 3111 3112 3112 3113 3114 3114 3114 3114 3114 3115 3115 3115 3114 3115 3115 3114 3114 3113 3112 3111 3110 3111 3115 3116 3117 3118 3118 3119 3120 3121 3122 3122 3123 3124 3125 3127 3128 3128 3129 3129 3129 3128 3128 3128 3125 3123 3124 3123 3124 3127 3129 3129 3128 3128 3131 3134 3138 3141 3142 3145 3149
3110 3107 3105 3104 3103 3103 3102 3102 3102 3102 3102 3103 3104 3105 3106 3107 3108 3108 3107 3106 3108 3109 3109 3110 3111 3112 3112 3112 3112 3112 3113 3114 3114 3114 3114 3114 3115 3115 3114 3114 3114 3114 3113 3114 3114 3113 3112 3110 3110 3114 3115 3115 3117 3118 3118 3120 3120 3120 3120 3122 3122 3123 3125 3126 3126 3127 3128 3128 3128 3128 3126 3122 3121 3123 3122 3123 3125 3126 3129 3129 3127 3129 3132 3135 3137 3139 3142 3146
3109 3106 3104 3104 3103 3102 3102 3102 3102 3102 3102 3104 3105 3105 3107 3108 3108 3108 3108 3108 3109 3109 3109 3110 3111 3111 3111 3112 3113 3112 3113 3113 3113 3114 3114 3115 3115 3114 3114 3114 3114 3113 3114 3115 3115 3114 3113 3109 3108 3110 3111 3112 3115 3117 3119 3119 3118 3119 3120 3121 3121 3122 3123 3123 3122 3123 3124 3125 3125 3124 3122 3120 3121 3124 3123 3123 3123 3124 3126 3128 3126 3127 3130 3133 3135 3137 3140 3144
3108 3106 3105 3104 3103 3102 3102 3102 3102 3102 3103 3105 3105 3106 3108 3109 3109 3108 3109 3110 3110 3109 3109 3110 3111 3111 3110 3110 3112 3112 3113 3113 3113 3114 3114 3115 3115 3114 3114 3114 3114 3114 3114 3115 3117 3116 3113 3108 3106 3109 3109 3110 3112 3113 3115 3117 3116 3117 3119 3119 3120 3123 3124 3123 3121 3121 3122 3123 3122 3119 3117 3118 3120 3122 3123 3123 3122 3121 3123 3125 3125 3125 3127 3129 3131 3134 3137 3141
3108 3106 3106 3105 3103 3103 3103 3102 3102 3103 3105 3106 3106 3107 3109 3110 3110 3109 3109 3110 3111 3111 3111 3111 3110 3111 3110 3110 3111 3112 3113 3113 3113 3114 3114 3114 3115 3115 3115 3115 3115 3114 3114 3116 3118 3118 3116 3109 3105 3108 3109 3108 3108 3107 3108 3113 3114 3115 3116 3118 3120 3123 3122 3122 3122 3120 3121 3121 3120 3116 3115 3115 3116 3116 3118 3120 3120 3120 3120 3121 3122 3122 3123 3125 3127 3130 3132 3136
3107 3106 3106 3105 3105 3105 3104 3103 3104 3104 3106 3107 3107 3108 3110 3109 3109 3109 3109 3110 3111 3111 3112 3112 3111 3111 3111 3111 3112 3112 3113 3113 3113 3114 3113 3113 3114 3115 3115 3115 3115 3114 3114 3116 3117 3118 3119 3112 3104 3106 3109 3108 3107 3108 3107 3110 3114 3115 3115 3117 3119 3120 3120 3120 3121 3120 3121 3121 3118 3114 3112 3112 3111 3112 3113 3115 3117 3117 3117 3118 3118 3118 3119 3122 3124 3127 3129 3133
3108 3106 3105 3105 3106 3106 3106 3106 3106 3106 3106 3108 3109 3110 3111 3109 3109 3110 3109 3110 3111 3111 3112 3112 3112 3112 3112 3113 3113 3113 3113 3113 3113 3113 3113 3113 3114 3115 3115 3115 3115 3114 3115 3117 3118 3118 3121 3118 3108 3103 3108 3109 3108 3110 3111 3110 3113 3115 3115 3116 3117 3118 3119 3119 3118 3119 3120 3120 3118 3115 3112 3109 3108 3109 3109 3109 3111 3112 3113 3115 3116 3115 3117 3121 3123 3125 3128 3130
3109 3107 3107 3106 3105 3106 3107 3107 3107 3107 3108 3109 3111 3111 3110 3110 3110 3110 3109 3109 3110 3111 3111 3112 3112 3112 3113 3113 3113 3113 3113 3114 3114 3114 3114 3114 3114 3113 3113 3114 3114 3115 3116 3118 3119 3118 3120 3122 3113 3103 3106 3110 3108 3109 3112 3112 3114 3115 3114 3115 3116 3117 3118 3117 3116 3117 3117 3117 3117 3117 3113 3109 3108 3108 3107 3106 3106 3108 3109 3112 3114 3114 3116 3121 3123 3123 3126 3128
3109 3109 3109 3107 3105 3107 3108 3108 3108 3109 3109 3110 3111 3111 3110 3110 3111 3110 3110 3110 3111 3111 3111 3112 3112 3113 3113 3113 3113 3113 3113 3114 3115 3115 3115 3114 3113 3113 3113 3114 3115 3115 3115 3117 3118 3118 3119 3120 3116 3107 3106 3108 3105 3106 3110 3114 3116 3115 3113 3114 3115 3115 3116 3117 3115 3115 3115 3115 3115 3117 3114 3108 3105 3107 3105 3103 3104 3106 3108 3112 3114 3113 3114 3119 3121 3122 3125 3127
3110 3110 3111 3110 3109 3110 3110 3109 3110 3110 3111 3111 3111 3111 3111 3111 3111 3111 3111 3111 3111 3111 3112 3112 3112 3113 3114 3114 3114 3114 3114 3114 3115 3116 3116 3114 3114 3115 3115 3115 3115 3114 3115 3117 3117 3118 3118 3118 3117 3111 3108 3107 3105 3104 3108 3112 3115 3114 3114 3114 3114 3114 3115 3116 3115 3113 3113 3113 3113 3116 3114 3106 3104 3106 3103 3100 3101 3104 3106 3110 3114 3113 3112 3115 3119 3121 3124 3127
3111 3111 3111 3111 3112 3112 3111 3111 3112 3111 3111 3111 3112 3111 3111 3111 3112 3112 3112 3112 3111 3111 3112 3113 3113 3113 3114 3113 3114 3114 3114 3115 3116 3117 3117 3116 3115 3116 3116 3115 3115 3115 3115 3117 3117 3117 3118 3119 3117 3112 3108 3106 3104 3103 3106 3110 3112 3112 3111 3112 3113 3114 3114 3113 3112 3111 3112 3111 3111 3114 3113 3105 3103 3105 3102 3099 3101 3102 3105 3109 3114 3116 3114 3114 3116 3119 3122 3125
3112 3111 3112 3113 3113 3113 3113 3113 3112 3112 3111 3112 3112 3111 3111 3112 3112 3111 3112 3113 3112 3111 3112 3112 3112 3114 3114 3114 3114 3115 3116 3116 3117 3117 3117 3117 3117 3117 3116 3115 3114 3115 3116 3117 3117 3116 3118 3119 3118 3115 3112 3108 3105 3104 3104 3106 3108 3110 3110 3110 3111 3113 3111 3108 3108 3110 3110 3110 3109 3110 3110 3105 3103 3104 3102 3101 3100 3100 3104 3107 3109 3112 3114 3115 3115 3116 3119 3122
3112 3112 3112 3113 3113 3113 3113 3112 3112 3112 3112 3112 3112 3112 3112 3112 3112 3112 3113 3113 3112 3113 3113 3112 3112 3114 3115 3114 3115 3116 3117 3117 3117 3116 3115 3116 3117 3116 3115 3114 3114 3115 3116 3117 3117 3117 3118 3119 3118 3118 3118 3115 3110 3108 3107 3108 3109 3110 3110 3109 3109 3111 3111 3110 3110 3110 3110 3109 3108 3109 3108 3106 3105 3104 3102 3103 3101 3098 3101 3103 3102 3105 3109 3111 3110 3111 3115 3119
3112 3111 3112 3112 3112 3112 3111 3112 3112 3112 3112 3112 3112 3113 3113 3113 3113 3113 3113 3113 3113 3113 3114 3113 3113 3114 3114 3115 3115 3116 3116 3117 3116 3115 3115 3115 3114 3113 3113 3114 3115 3116 3116 3116 3116 3117 3118 3118 3117 3118 3118 3116 3113 3111 3111 3112 3112 3110 3109 3108 3108 3110 3112 3113 3112 3112 3111 3109 3107 3108 3108 3107 3106 3103 3101 3103 3103 3099 3099 3101 3103 3105 3107 3106 3103 3104 3110 3118
3112 3111 3112 3112 3112 3112 3111 3112 3112 3112 3112 3112 3112 3113 3114 3114 3114 3113 3113 3114 3113 3113 3114 3114 3114 3115 3115 3115 3115 3116 3116 3116 3115 3115 3115 3114 3113 3112 3113 3115 3116 3116 3116 3116 3117 3117 3117 3117 3116 3117 3116 3114 3113 3112 3112 3113 3113 3111 3109 3109 3109 3110 3111 3112 3112 3112 3112 3109 3105 3105 3107 3108 3107 3105 3102 3101 3101 3099 3100 3101 3102 3103 3104 3104 3102 3102 3107 3112
3112 3112 3112 3112 3112 3113 3113 3113 3113 3112 3112 3112 3113 3113 3113 3114 3114 3114 3114 3115 3115 3114 3114 3115 3115 3116 3116 3116 3116 3116 3116 3116 3115 3115 3115 3114 3114 3113 3114 3115 3116 3116 3115 3116 3117 3117 3117 3115 3115 3115 3114 3113 3113 3112 3112 3112 3111 3110 3109 3110 3110 3110 3110 3111 3111 3111 3111 3110 3107 3106 3106 3107 3107 3105 3102 3100 3100 3100 3101 3100 3100 3100 3101 3103 3104 3105 3108 3109
3113 3113 3113 3112 3112 3114 3115 3114 3114 3113 3112 3112 3113 3113 3113 3114 3114 3114 3114 3115 3115 3115 3115 3115 3116 3116 3116 3116 3116 3116 3116 3116 3116 3116 3115 3115 3115 3115 3115 3115 3116 3115 3115 3115 3116 3116 3115 3114 3114 3114 3113 3111 3111 3111 3111 3110 3109 3107 3107 3108 3110 3110 3109 3109 3110 3111 3110 3108 3108 3108 3107 3106 3106 3105 3102 3100 3099 3100 3101 3099 3099 3100 3102 3104 3105 3108 3109 3110
3113 3113 3113 3112 3112 3114 3115 3115 3115 3114 3113 3113 3113 3114 3114 3114 3113 3113 3114 3115 3115 3115 3115 3115 3115 3115 3115 3116 3116 3116 3117 3116 3115 3115 3115 3115 3115 3115 3116 3115 3115 3115 3115 3115 3115 3115 3114 3113 3113 3113 3112 3110 3110 3110 3110 3109 3107 3105 3104 3105 3107 3109 3109 3108 3109 3109 3108 3106 3107 3108 3107 3106 3105 3103 3102 3100 3098 3099 3100 3100 3100 3102 3104 3104 3105 3107 3109 3110
3114 3113 3113 3113 3113 3114 3115 3115 3115 3114 3114 3113 3113 3114 3114 3114 3113 3113 3114 3114 3114 3115 3115 3115 3115 3115 3115 3115 3115 3116 3115 3114 3113 3114 3114 3114 3114 3114 3114 3114 3114 3114 3114 3114 3114 3113 3113 3112 3112 3113 3112 3109 3109 3110 3109 3108 3107 3103 3101 3101 3104 3107 3107 3107 3106 3107 3106 3105 3105 3106 3106 3106 3104 3101 3099 3098 3098 3099 3100 3101 3101 3102 3102 3103 3103 3106 3108 3110
3115 3114 3115 3114 3113 3114 3115 3114 3114 3114 3113 3114 3114 3113 3114 3114 3114 3114 3113 3113 3113 3114 3115 3114 3114 3114 3114 3114 3114 3114 3113 3112 3111 3112 3112 3112 3112 3111 3111 3111 3112 3112 3112 3113 3113 3112 3113 3112 3112 3113 3111 3109 3109 3110 3108 3107 3105 3101 3099 3101 3103 3105 3106 3105 3103 3104 3104 3104 3105 3106 3105 3104 3102 3101 3098 3097 3097 3098 3099 3101 3101 3102 3102 3102 3103 3105 3107 3109